ORBCOMM FM 2

Satellite information

Favourite Embed

Satellite Type and Status

PAYLOADIN ORBIT

Key statistics

Satellite ORBCOMM FM 2 at a glance.

Uptime

11115

Days in orbit

Revolutions

≈ 14.9

Per day

Orbit

LEO

Low Earth Orbit

Inclination

70.0

Latest

Satellite identification and parameters

Extended collection of information and parameters for ORBCOMM FM 2.

Object identification

Identified? True

Debris? False

Object name: ORBCOMM FM 2

International designator: 1995-017B

Object number (NORAD): 23546

Object ID (CCSDS): 23546

Country: ORBITAL TELECOMMUNICATIONS SATELLITE (GLOBALSTAR) (ORB)

Current information (Y/N): Y

RCS size: MEDIUM

Orbital parameters

Period: 96.513 minutes

Inclination: 69.9623 deg

SMA: 6969.746 km

Apoapsis: 595.751 km

Periapsis: 587.471 km

RAAN: 249.8566 deg

Eccentricy: 0.00059399

Argument of periapsis: 225.738 deg

Mean anomaly: 134.3289 deg

Mean motion: 14.9202916 rev/day

Mean motion (dot): 0.00013032 rev/day2

B* drag term: 0.0012883167 1/REarth

Two-line elements (TLE)

Creation date: Sept. 7, 2025, 3:09 a.m.

Reference frame: TEME

Reference center: EARTH

Epoch: Sept. 6, 2025, 4:47 p.m. UTC

TLE line 0: 0 ORBCOMM FM 2

TLE line 1: 1 23546U 95017B 25249.69948552 .00013032 00000-0 12883-2 0 9995

TLE line 2: 2 23546 69.9623 249.8566 0005940 225.7380 134.3289 14.92029160624312

Live tracking on map

Real-time ground track for satellite ORBCOMM FM 2.

In-orbit conjunctions

There are no conjunctions computed for ORBCOMM FM 2, at the moment. Check back to stay up to date, as we update our databases every day.

Go to all conjunctions

Associated space launch

ORBCOMM FM 2 was lifted into orbit during the mission ‘Pegasus Hybrid | Orbcomm F1 - F2 & OrbView-1’, on board a Pegasus Hybrid space rocket.

The launch took place on April 3, 1995, 1:48 p.m. from Vandenberg Space Force Base.

For more information about the launch, click the button.

Launch to space Pegasus Hybrid | Orbcomm F1 - F2 & OrbView-1
Pegasus Hybrid | Orbcomm F1 - F2 & OrbView-1

Agency: N/A

Status: Launch Successful

Launch date: April 3, 1995, 1:48 p.m. UTC

Rocket: Pegasus Hybrid

Launch pad: Vandenberg Space Force Base

Location: Air launch to orbit

...

Latest news about this satellite

There are no fresh news available about this satellite. Check back as we update our databases every day.


Newsletter sign-up

Weekly statistics, charts and insights to help you stay on top of the space industry.